EHI
0 0 0 0 0 0 0 0 0 0 0 0 0 0 0 0 0 0 0 0 0 0 0 0 0 0 0 0 0 0 0 0 0 0 0 0 0 0 0 0 0 0 0 0
0 0 0 0 0 0 0 0 0 0 0 0 0 0 0 0 0 0 0 0 0 0 0 0 0 0 0 0 0 0 0 0 0 0 0 0 0 0 0 0 0 0 0 0
0 0 0 0 0 0 0 0 0 0 0 0 0 0 0 0 0 0 0 0 0 0 0 0 0 0 0 0 0 0 0 0 0 0 0 0 0 0 0 0 0 0 0 0
0 0 0 0 0 0 0 0 0 0 0 0 0 0 0 0 0 0 0 0 0 0 0 0 0 0 0 0 0 0 0 0 0 0 0 0 0 0 0 0 0 0 0 0
0 0 0 0 0 0 0 0 0 0 0 0 0 0 0 0 0 0 0 0 0 0 0 0 0 0 0 0 0 0 0 0 0 0 0 0 0 0 0 0 0 0 0 0
0 0 0 0 0 0 0 0 0 0 0 0 0 0 0 0 0 0 0 0 0 0 0 0 0 0 0 0 0 0 0 0 0 0 0 0 0 0 0 0 0 0 0 0
0 0 0 0 0 0 0 0 0 0 0 0 0 0 0 0 0 0 0 0 0 0 0 0 0 0 0 0 0 0 0 0 0 0 0 0 0 0 0 0 0 0 0 0
0 0 0 0 0 0 0 0 0 0 0 0 0 0 0 0 0 0 0 0 0 0 0 0 0 0 0 0 0 0 0 0 0 0 0 0 0 0 0 0 0 0 0 0
0 0 0 0 0 0 0 0 0 0 0 0 0 0 0 0 0 0 0 0 0 0 0 0 0 0 0 0 0 0 0 0 0 0 0 0 0 0 0 0 0 0 0 0
0 0 0 0 0 0 0 0 0 0 0 0 0 0 0 0 0 0 0 0 0 0 0 0 0 0 0 0 0 0 0 0 0 0 0 0 0 0 0 0 0 0 0 0
0 0 0 0 0 0 0 0 0 0 0 0 0 0 0 0 0 0 0 0 0 0 0 0 0 0 0 0 0 0 0 0 0 0 0 0 0 0 0 0 0 0 0 0
0 0 0 0 0 0 0 0 0 0 0 0 0 0 0 0 0 0 0 0 0 0 0 0 0 0 0 0 0 0 0 0 0 0 0 0 0 0 0 0 0 0 0 0
0 0 0 0 0 0 0 0 0 0 0 0 0 0 0 0 0 0 0 0 0 0 0 0 0 0 0 0 0 0 0 0 0 0 0 0 0 0 0 0 0 0 0 0
0 0 0 0 0 0 0 0 0 0 0 0 0 0 0 0 0 0 0 0 0 0 0 0 0 0 0 0 0 0 0 0 0 0 0 0 0 0 0 0 0 0 0 0
0 0 0 0 0 0 0 0 0 0 0 0 0 0 0 0 0 0 0 0 0 0 0 0 0 0 0 0 0 0 0 0 0 0 0 0 0 0 0 0 0 0 0 0
0 0 0 0 0 0 0 0 0 0 0 0 0 0 0 0 0 0 0 0 0 0 0 0 0 0 0 0 0 0 0 0 0 0 0 0 0 0 0 0 0 0 0 0
0 0 0 0 0 0 0 0 0 0 0 0 0 0 0 0 0 0 0 0 0 0 0 0 0 0 0 0 0 0 0 0 0 0 0 0 0 0 0 0 0 0 0 0
0 0 0 0 0 0 0 0 0 0 0 0 0 0 0 0 0 0 0 0 0 0 0 0 0 0 0 0 0 0 0 0 0 0 0 0 0 0 0 0 0 0 0 0
0 0 0 0 0 0 0 0 0 0 0 0 0 0 0 0 0 0 0 0 0 0 0 0 0 0 0 0 0 0 0 0 0 0 0 0 0 0 0 0 0 0 0 0
0 0 0 0 0 0 0 0 0 0 0 0 0 0 0 0 0 0 0 0 0 0 0 0 0 0 0 0 0 0 0 0 0 0 0 0 0 0 0 0 0 0 0 0
0 0 0 0 0 0 0 0 0 0 0 0 0 0 0 0 0 0 0 0 0 0 0 0 0 0 0 0 0 0 0 0 0 0 0 0 0 0 0 0 0 0 0 0
0 0 0 0 0 0 0 0 0 0 0 0 0 0 0 0 0 0 0 0 0 0 0 0 0 0 0 0 0 0 0 0 0 0 0 0 0 0 0 0 0 0 0 0
0 0 0 0 0 0 0 0 0 0 0 0 0 0 0 0 0 0 0 0 0 0 0 0 0 0 0 0 0 0 0 0 0 0 0 0 0 0 0 0 0 0 0 0
0 0 0 0 0 0 0 0 0 0 0 0 0 0 0 0 0 0 0 0 0 0 0 0 0 0 0 0 0 0 0 0 0 0 0 0 0 0 0 0 0 0 0 0
0 0 0 0 0 0 0 0 0 0 0 0 0 0 0 0 0 0 0 0 0 0 0 0 0 0 0 0 0 0 0 0 0 0 0 0 0 0 0 0 0 0 0 0
0 0 0 0 0 0 0 0 0 0 0 0 0 0 0 0 0 0 0 0 0 0 0 0 0 0 0 0 0 0 0 0 0 0 0 0 0 0 0 0 0 0 0 0
0 0 0 0 0 0 0 0 0 0 0 0 0 0 0 0 0 0 0 0 0 0 0 0 0 0 0 0 0 0 0 0 0 0 0 0 0 0 0 0 0 0 0 0
Wind_Speed
12 13 10 14 17 13 12 12 12 15 17 20 15 11 11 11 10 10 10 9 9 9 9 8 8 7 6 6 5 3 2 2 2 2 2 2 2 3 3 4 5 6 7 9
9 9 10 16 19 16 15 13 15 17 20 15 11 8 9 10 9 9 9 9 10 10 10 9 9 8 7 6 6 4 2 2 2 2 2 2 2 2 2 3 3 4 6 8
7 6 7 12 11 10 8 8 8 12 12 8 9 9 9 9 8 7 9 9 10 10 9 9 9 7 7 5 5 4 3 3 2 2 2 2 2 2 3 3 3 4 4 5
5 4 9 10 3 5 7 10 10 9 7 7 9 10 9 7 5 7 9 9 9 9 9 9 8 8 6 5 4 4 4 3 2 2 3 2 2 2 3 2 3 4 5 4
3 5 12 11 6 4 5 9 6 7 7 8 7 7 7 5 4 6 8 8 8 8 8 8 8 8 6 5 4 4 4 4 3 3 3 3 2 2 3 2 3 3 3 4
5 5 10 9 3 1 0 8 5 4 6 7 5 6 8 7 7 7 7 7 7 8 7 7 8 7 6 5 4 4 4 4 3 3 3 3 3 3 2 2 2 2 2 3
9 9 12 9 3 1 2 9 4 4 5 5 5 7 8 8 8 7 7 8 7 7 7 7 7 6 6 5 5 5 5 3 3 3 3 3 3 2 2 2 1 1 1 2
7 9 14 6 5 7 9 5 4 5 5 6 8 8 8 8 8 7 7 8 7 7 8 7 6 6 6 5 5 5 4 3 3 3 3 2 2 2 2 2 2 1 1 1
12 13 7 5 8 7 5 5 6 5 7 7 8 8 8 8 8 7 7 7 7 7 8 8 7 6 6 6 5 4 4 4 4 4 3 2 2 2 2 1 2 1 1 1
8 11 9 8 7 6 6 7 7 7 7 6 8 8 8 7 8 8 7 8 7 7 8 9 8 6 6 5 5 4 4 4 3 3 3 3 2 2 2 1 2 2 2 2
10 10 7 8 9 10 8 7 7 7 7 7 7 8 8 7 7 7 7 7 6 7 8 8 8 7 6 4 3 3 4 3 3 3 3 3 3 2 3 3 3 3 3 3
12 9 8 8 7 7 7 8 8 8 8 7 6 8 8 7 7 7 7 7 7 7 8 8 7 7 6 4 3 3 4 3 3 3 2 2 2 3 3 3 4 5 5 4
13 9 9 9 8 7 7 7 7 6 7 7 6 6 7 7 7 7 7 7 7 8 8 7 7 7 6 5 4 3 4 4 3 3 2 2 2 2 3 3 2 2 3 3
10 8 8 8 8 7 7 7 6 5 6 6 6 6 6 7 7 7 8 7 7 7 7 7 7 7 6 5 4 4 4 5 4 3 2 2 2 2 2 2 2 1 1 2
9 9 9 7 6 6 5 4 4 5 6 6 5 6 6 7 8 8 8 7 7 7 7 7 7 7 6 5 5 5 4 3 3 2 2 2 2 2 2 2 2 1 1 0
5 5 6 6 7 6 5 4 5 6 6 6 6 6 7 7 8 8 7 6 7 8 8 7 7 7 6 5 5 4 4 6 5 2 2 2 1 2 2 2 2 2 2 1
5 6 6 6 6 6 5 5 6 6 6 6 7 7 7 7 7 8 8 7 7 7 7 7 7 7 6 5 5 4 3 4 5 3 2 2 2 2 2 2 2 2 2 2
7 8 7 6 5 5 5 4 4 5 5 6 6 6 6 7 8 9 9 8 8 7 7 6 6 6 6 5 5 4 3 3 2 2 2 2 2 2 2 2 2 2 2 2
4 4 4 4 3 3 4 4 4 5 5 5 6 7 7 7 8 8 8 7 8 9 8 5 9 7 6 6 7 3 3 3 3 2 2 3 3 2 2 2 2 2 2 2
1 1 1 1 2 2 3 3 4 4 4 5 6 7 8 8 8 8 8 7 6 6 7 8 7 5 5 5 7 3 3 3 3 3 2 2 2 2 2 3 3 3 2 3
1 1 1 2 2 3 3 3 4 5 5 5 6 7 8 9 8 7 7 8 7 7 7 10 6 5 5 6 7 3 3 3 3 3 3 2 2 3 2 3 3 3 2 2
1 1 1 2 3 4 4 3 4 5 6 6 7 7 8 9 8 8 7 7 8 11 8 5 4 7 8 9 4 4 4 4 3 3 3 3 3 3 3 3 3 3 3 3
1 2 2 3 3 4 5 4 5 5 6 7 7 8 8 8 7 7 8 6 6 10 8 5 8 11 13 7 4 4 4 4 4 3 3 3 3 3 3 3 3 3 3 3
1 2 2 3 3 4 5 5 5 5 6 7 7 8 7 7 7 6 7 11 12 13 7 8 12 13 12 5 4 4 4 4 4 3 3 3 3 3 3 3 3 3 3 4
1 2 2 3 3 4 5 6 6 6 6 6 7 7 6 5 7 7 7 8 12 12 7 8 12 12 7 4 4 4 4 4 4 3 3 3 3 3 3 3 3 3 4 4
2 2 3 3 4 4 4 4 5 5 6 6 6 6 5 5 7 7 7 8 9 10 8 6 6 7 5 5 4 4 4 4 4 3 3 3 3 3 3 3 4 4 4 4
2 2 2 3 3 3 4 4 5 6 6 7 8 7 6 6 6 7 7 7 7 6 6 6 5 5 5 4 4 4 4 3 3 3 3 3 3 3 4 4 4 4 4 4
Wind_Direction
255 267 271 269 271 264 244 237 246 263 273 282 290 296 301 305 310 318 323 329 331 331 327 324 326 326 326 320 312 302 299 299 281 279 274 267 241 231 235 235 225 217 213 205
273 265 267 271 268 260 253 246 245 261 273 275 289 298 302 306 310 318 322 324 326 327 327 324 323 322 322 321 315 308 298 297 293 299 297 280 271 252 249 241 227 222 220 204
277 301 306 272 252 236 229 224 222 246 261 294 307 306 304 303 302 309 316 320 321 321 318 317 314 313 313 311 311 312 309 302 298 302 292 272 275 256 251 254 245 232 224 206
283 328 258 248 243 228 240 253 241 249 267 284 287 291 290 282 289 308 315 319 319 319 315 314 312 311 309 315 316 314 317 311 302 299 292 279 270 270 254 249 233 233 215 208
234 263 275 285 272 227 233 272 248 239 266 284 297 309 299 284 298 297 302 308 309 310 309 312 313 315 313 319 318 319 316 312 299 291 289 282 266 269 265 254 248 227 205 201
214 239 255 255 254 260 9 281 259 228 264 286 317 314 294 304 312 309 311 311 313 316 318 318 317 320 315 310 311 309 303 298 297 288 284 278 268 260 275 259 248 222 218 208
224 241 262 257 245 125 217 256 262 246 258 265 250 248 273 297 302 303 305 307 314 318 318 314 318 323 314 308 304 300 304 305 305 301 292 282 278 266 274 267 240 213 218 225
198 224 250 226 166 196 228 250 254 259 259 260 262 271 281 288 293 301 305 309 316 316 312 310 313 319 313 300 298 303 308 307 306 306 302 292 275 277 276 244 198 214 198 249
200 220 235 199 209 229 231 248 254 257 264 263 268 274 283 287 292 296 299 303 308 307 307 309 309 309 301 297 304 310 311 304 302 304 301 293 266 259 275 225 191 213 206 238
242 253 252 256 258 260 248 247 254 254 258 258 263 273 279 286 291 296 298 300 303 308 306 304 305 302 292 292 300 296 291 290 294 302 305 305 285 253 251 237 206 210 220 224
246 261 275 258 246 251 253 255 260 263 258 255 259 269 272 278 284 289 293 296 297 295 294 295 301 302 300 291 298 298 296 298 301 296 293 299 302 277 258 248 233 224 221 209
241 232 226 247 241 237 245 254 256 260 267 264 256 265 272 278 282 286 291 295 298 298 296 297 301 301 304 298 293 294 299 298 291 290 290 292 305 319 306 261 260 249 239 231
243 249 241 255 258 246 244 251 253 252 255 266 269 266 272 278 282 285 289 293 292 293 296 297 299 300 301 300 293 283 279 282 283 283 283 287 289 295 316 336 313 243 239 236
242 249 257 255 254 253 248 250 254 259 260 262 266 273 278 282 288 289 289 290 290 291 295 297 298 296 297 301 294 282 276 278 279 270 268 264 261 260 247 259 292 310 283 229
240 231 239 250 259 262 256 257 264 269 275 278 275 279 284 287 288 289 291 295 296 295 296 297 297 297 302 302 292 281 277 275 272 265 261 255 253 258 245 233 235 255 297 311
238 237 238 245 256 260 260 257 259 268 272 275 281 284 284 283 285 290 295 299 299 297 296 296 293 295 300 300 296 290 283 283 283 272 265 265 259 256 250 233 225 220 224 216
231 244 240 248 253 254 252 251 254 264 273 277 281 286 291 296 298 298 298 297 289 287 289 289 291 298 299 296 292 288 283 284 289 286 263 259 256 252 248 233 223 224 221 218
227 236 234 234 241 250 260 264 266 270 273 278 288 294 295 295 294 295 298 301 302 299 293 289 292 300 299 297 292 283 278 272 268 262 264 265 265 250 243 229 217 221 224 202
239 239 241 239 235 239 257 270 276 278 283 289 292 289 287 287 289 291 294 298 298 298 298 294 299 302 295 293 295 284 274 266 268 264 256 266 276 259 243 226 214 214 205 186
249 244 252 280 288 276 277 286 289 289 288 289 290 292 294 294 294 294 294 287 279 278 288 293 295 290 289 289 291 278 269 264 259 257 254 243 244 250 244 224 211 203 193 188
259 291 310 308 310 308 300 298 298 296 298 296 290 290 292 296 297 297 296 293 292 289 292 295 294 287 290 290 289 278 270 264 259 252 248 241 236 242 238 221 202 192 188 189
251 276 294 301 306 307 309 307 301 299 301 301 298 296 296 298 299 295 283 279 292 299 300 291 287 287 292 293 281 272 269 264 256 248 244 238 234 232 222 209 195 189 186 190
259 278 288 294 294 297 305 304 300 297 296 296 296 295 293 292 294 295 296 295 297 299 299 287 289 294 295 293 278 269 266 261 254 247 241 238 236 223 209 204 198 187 185 183
274 291 295 299 301 300 301 302 301 298 293 292 290 291 292 295 294 285 284 296 301 301 296 293 296 297 298 290 277 270 265 256 248 243 240 236 224 211 207 200 192 188 185 178
281 289 294 300 299 295 296 304 305 300 296 293 291 291 289 285 288 294 295 295 297 301 299 299 299 300 298 288 280 274 268 254 244 237 231 226 214 202 202 200 194 187 182 177
283 284 284 280 280 288 294 297 296 297 299 300 300 298 296 294 292 292 293 294 294 296 296 293 294 296 290 283 278 274 268 263 258 246 226 219 208 202 201 196 191 189 180 173
298 297 299 300 298 294 292 290 291 294 296 296 298 299 299 298 296 296 296 296 297 296 295 293 291 286 283 280 278 275 272 263 249 232 221 215 208 201 196 189 185 182 175 169